This is the latest recevied weather packets stored in our database for station/object M0TUM-1. If no packets are shown the sender has not sent any weather packets the latest 1 day(s).
| Time | Temp. | Humidity | Pressure | Rain* | Wind** | Luminosity | Snow |
|---|---|---|---|---|---|---|---|
| 1778080084 | 10° C | 84% | 1013.2 hPa | 0 mm | - | 64 W/m² | - |
| 1778079781 | 10° C | 84% | 1013 hPa | 0 mm | - | 62 W/m² | - |
| 1778079478 | 10° C | 84% | 1013 hPa | 0 mm | - | 47 W/m² | - |
| 1778079174 | 10° C | 83% | 1012.9 hPa | 0 mm | - | 37 W/m² | - |
| 1778078872 | 10° C | 83% | 1013.1 hPa | 0 mm | - | 38 W/m² | - |
| 1778077662 | 10.56° C | 82% | 1012.8 hPa | 0 mm | - | 49 W/m² | - |
| 1778074027 | 10.56° C | 84% | 1012.8 hPa | 0 mm | - | 267 W/m² | - |
| 1778073117 | 10.56° C | 85% | 1013 hPa | 0 mm | - | 233 W/m² | - |
| 1778071605 | 10° C | 83% | 1013.1 hPa | 0 mm | - | 54 W/m² | - |
| 1778069790 | 10° C | 85% | 1012.7 hPa | 0 mm | - | 147 W/m² | - |
| 1778068580 | 10° C | 86% | 1012.7 hPa | 0 mm | - | 172 W/m² | - |
| 1778066462 | 9.44° C | 87% | 1012.8 hPa | 0 mm | - | 118 W/m² | - |
| 1778065554 | 10° C | 87% | 1012.7 hPa | 3.05 mm | - | 111 W/m² | - |
| 1778065251 | 10° C | 87% | 1012.7 hPa | 3.05 mm | - | 106 W/m² | - |
| 1778064947 | 9.44° C | 87% | 1012.9 hPa | 3.05 mm | - | 129 W/m² | - |
| 1778064644 | 8.89° C | 87% | 1013 hPa | 1.27 mm | - | 120 W/m² | - |
| 1778064040 | 9.44° C | 87% | 1012.9 hPa | 1.78 mm | - | 124 W/m² | - |
| 1778063737 | 9.44° C | 86% | 1012.7 hPa | 1.27 mm | - | 154 W/m² | - |
| 1778062223 | 9.44° C | 85% | 1012.8 hPa | 1.78 mm | - | 139 W/m² | - |
| 1778061921 | 10° C | 84% | 1012.7 hPa | 0 mm | - | 140 W/m² | - |
| 1778061013 | 10° C | 83% | 1012.4 hPa | 0 mm | - | 170 W/m² | - |
| 1778060409 | 10° C | 83% | 1012.4 hPa | 0 mm | - | 123 W/m² | - |
| 1778060107 | 10° C | 83% | 1012 hPa | 0 mm | - | 189 W/m² | - |
| 1778059198 | 10° C | 84% | 1012.5 hPa | 0 mm | - | 200 W/m² | - |
| 1778057381 | 9.44° C | 87% | 1012.3 hPa | 0 mm | - | 127 W/m² | - |
* Rain latest hour (hover to see other rain measurements)
** Current wind speed in m/s (hover to see current wind gust speed)